Simultaneous Nadir Overpasses (SNOs) Predictions

Prediction of SNOs between GOES-16 and TERRA Satellite Orbit:

Table of predicted SNOs for the next 14.0 days since TLE Epoch: 2/11/2017
Index Date Time (GOES-16) GOES-16 Lat,Lon TERRA Lat,Lon Distance(km) Time Diff (sec)
1 02/11/2017 04:43:50 -0.00, -89.48 0.00, -93.08 400.26 80
2 02/13/2017 04:31:26 -0.00, -89.49 -0.13, -89.96 54.22 80
3 02/15/2017 04:16:35 0.00, -89.51 0.53, -87.01 283.61 80
4 02/15/2017 16:37:51 0.00, -89.55 0.54, -92.18 298.69 80
5 02/17/2017 16:28:19 0.00, -89.57 -0.05, -89.22 39.62 80
6 02/19/2017 16:16:08 0.00, -89.59 -0.71, -86.27 378.03 80
7 02/20/2017 04:37:31 -0.01, -89.57 -0.40, -91.46 214.96 80
8 02/22/2017 04:22:41 -0.01, -89.59 0.25, -88.51 123.67 80
9 02/22/2017 16:43:55 0.01, -89.63 0.88, -93.66 458.94 80
10 02/24/2017 04:10:29 -0.00, -89.62 0.85, -85.55 462.40 80
11 02/24/2017 16:31:44 0.01, -89.65 0.23, -90.71 120.04 80




NCC Satellite Simultaneous Nadir Overpasses (SNOs) Prediction Service
